Hourly Data Report for October 05, 2017

All times are specified in Local Standard Time (LST). Add 1 hour to adjust for Daylight Saving Time where and when it is observed.

KUGLUKTUK A
NUNAVUT

67°49'00.000" N
115°08'38.000" W
22.60 m
2300903
71938
YCO

Download Data

Hourly Data (October 2017)
Hourly Data Report for October 5, 2017
Temp Definition
°C
Dew Point Temp Definition
°C
Rel Hum Definition
%
Wind Dir Definition
10's deg

Wind Spd Definition
km/h
Visibility Definition
km
Stn Press Definition
kPa
Hmdx Definition


Wind Chill Definition


Weather Definition


TIME
00:00 Legend Double Dagger -3.5 -6.0 83 25 9 24.1 101.83   -7 LegendNANA
01:00 Legend Double Dagger -3.8 LegendMM LegendMM 18 6 24.1 101.78   -6 LegendNANA
02:00 Legend Double Dagger -4.2 -6.6 83 28 8 24.1 101.68   -8 Cloudy
03:00 Legend Double Dagger -4.2 -6.5 84 20 9 24.1 101.64   -8 LegendNANA
04:00 Legend Double Dagger -4.2 -6.7 83 22 7 24.1 101.57   -7 LegendNANA
05:00 Legend Double Dagger -4.5 -7.0 83 24 7 24.1 101.50   -8 Cloudy
06:00 Legend Double Dagger -4.6 -7.1 83 17 10 24.1 101.43   -9 LegendNANA
07:00 Legend Double Dagger -5.7 -7.4 88 15 8 24.1 101.32   -9 LegendNANA
08:00 Legend Double Dagger -5.0 -7.2 85 14 11 24.1 101.22   -10 Cloudy
09:00 Legend Double Dagger -5.0 -7.1 86 11 15 24.1 101.15   -11 LegendNANA
10:00 Legend Double Dagger -4.7 -6.7 86 11 16 24.1 101.04   -10 LegendNANA
11:00 Legend Double Dagger -3.8 -6.6 81 11 8 24.1 100.92   -7 Cloudy
12:00 Legend Double Dagger -2.7 -5.7 80 9 14 24.1 100.81   -8 LegendNANA
13:00 Legend Double Dagger -1.8 -5.1 78 9 17 24.1 100.68   -7 LegendNANA
14:00 Legend Double Dagger -1.2 -5.2 74 10 16 24.1 100.60   -6 Cloudy
15:00 Legend Double Dagger -0.7 -5.0 73 9 25 24.1 100.47   -7 LegendNANA
16:00 Legend Double Dagger -0.6 -4.5 75 10 24 24.1 100.40   -7 LegendNANA
17:00 Legend Double Dagger -0.9 -3.9 80 10 24 24.1 100.28   -7 Cloudy
18:00 Legend Double Dagger -1.1 -4.0 81 10 22 24.1 100.21   -7 LegendNANA
19:00 Legend Double Dagger -1.5 -4.1 82 10 19 24.1 100.14   -7 LegendNANA
20:00 Legend Double Dagger -2.1 -4.4 84 11 18 24.1 100.09   -8 Mostly Cloudy
21:00 Legend Double Dagger -1.5 -3.0 90 10 19 24.1 100.00   -7 LegendNANA
22:00 Legend Double Dagger -2.7 -4.6 87 11 19 24.1 99.97   -8 LegendNANA
23:00 Legend Double Dagger -2.9 -4.4 89 11 22 24.1 99.91   -9 Cloudy

Notes on Data Quality.

Legend

  • E = Estimated
  • M = Missing
  • NA = Not Available
  • ‡ = Partner data that is not subject to review by the National Climate Archives
Date modified: